• In Deutschland
  • Länderverzeichnis
  • Für 7 Tage
  • Wassertemperatur
  • Satellitenkarten
  • Wetterkarte
  • Widgets
  • user-avatar
    Anmelden

    Stündliche Wetter Ischgl

    Heute, 23 April, Sonntag

    Zeit Temperatur Niederschläge Wind Luftdruck Luftfeuchtigkeit
    00:00 -5°C° 0,4 mm 2 m/S 572 mmHg 96%
    01:00 -6°C° 0 mm 2 m/S 572 mmHg 97%
    02:00 -7°C° 0,2 mm 2 m/S 572 mmHg 97%
    03:00 -7°C° 0,2 mm 2 m/S 571 mmHg 97%
    04:00 -8°C° 0,2 mm 2 m/S 571 mmHg 97%
    05:00 -6°C° 0,1 mm 1 m/S 571 mmHg 96%
    06:00 -6°C° 0,1 mm 1 m/S 572 mmHg 95%
    07:00 -4°C° 0 mm 1 m/S 572 mmHg 94%
    08:00 -3°C° 0 mm 1 m/S 573 mmHg 92%
    09:00 -2°C° 0 mm 1 m/S 573 mmHg 90%
    10:00 -3°C° 0 mm 2 m/S 574 mmHg 88%
    11:00 0°C° 0 mm 1 m/S 574 mmHg 87%
    12:00 0°C° 0 mm 1 m/S 574 mmHg 86%
    13:00 +1°C° 0 mm 1 m/S 574 mmHg 85%
    14:00 +1°C° 0 mm 1 m/S 574 mmHg 84%
    15:00 +1°C° 0 mm 1 m/S 574 mmHg 84%
    16:00 -1°C° 0 mm 2 m/S 574 mmHg 84%
    17:00 -1°C° 0 mm 1 m/S 573 mmHg 88%
    18:00 -2°C° 0 mm 1 m/S 573 mmHg 91%
    19:00 -4°C° 0 mm 1 m/S 572 mmHg 95%
    20:00 -6°C° 0 mm 1 m/S 572 mmHg 95%
    21:00 -7°C° 0 mm 1 m/S 572 mmHg 96%
    22:00 -8°C° 0 mm 1 m/S 571 mmHg 96%
    23:00 -9°C° 0 mm 1 m/S 571 mmHg 94%

    Morgen, 24 April, Montag

    Zeit Temperatur Niederschläge Wind Luftdruck Luftfeuchtigkeit
    00:00 -9°C° 0 mm 1 m/S 571 mmHg 92%
    01:00 -9°C° 0 mm 1 m/S 571 mmHg 90%
    02:00 -9°C° 0 mm 1 m/S 570 mmHg 88%
    03:00 -9°C° 0 mm 1 m/S 570 mmHg 87%
    04:00 -10°C° 0 mm 2 m/S 570 mmHg 85%
    05:00 -8°C° 0 mm 2 m/S 571 mmHg 85%
    06:00 -6°C° 0 mm 2 m/S 572 mmHg 85%
    07:00 -5°C° 0 mm 2 m/S 572 mmHg 85%
    08:00 -1°C° 0 mm 1 m/S 573 mmHg 83%
    09:00 +1°C° 0 mm 1 m/S 574 mmHg 81%
    10:00 +3°C° 0 mm 1 m/S 575 mmHg 79%
    11:00 +4°C° 0 mm 1 m/S 575 mmHg 77%
    12:00 +4°C° 0 mm 1 m/S 575 mmHg 75%
    13:00 +5°C° 0 mm 1 m/S 575 mmHg 73%
    14:00 +5°C° 0,1 mm 1 m/S 574 mmHg 74%
    15:00 +5°C° 0,1 mm 1 m/S 574 mmHg 76%
    16:00 +5°C° 0,1 mm 1 m/S 573 mmHg 77%
    17:00 +3°C° 0,2 mm 1 m/S 572 mmHg 83%
    18:00 +1°C° 0,2 mm 1 m/S 571 mmHg 89%
    19:00 -1°C° 0,2 mm 1 m/S 570 mmHg 95%
    20:00 -1°C° 0,1 mm 1 m/S 570 mmHg 95%
    21:00 -3°C° 0,1 mm 2 m/S 570 mmHg 95%
    22:00 -4°C° 0,1 mm 2 m/S 570 mmHg 95%
    23:00 -4°C° 0 mm 2 m/S 570 mmHg 95%

    übermorgen, 25 April, Dienstag

    Zeit Temperatur Niederschläge Wind Luftdruck Luftfeuchtigkeit
    00:00 -4°C° 0 mm 2 m/S 570 mmHg 95%
    01:00 -4°C° 0 mm 2 m/S 569 mmHg 95%
    02:00 -4°C° 0 mm 2 m/S 569 mmHg 94%
    03:00 -5°C° 0 mm 2 m/S 568 mmHg 94%
    04:00 -5°C° 0 mm 2 m/S 568 mmHg 94%
    05:00 -4°C° 0,1 mm 2 m/S 568 mmHg 92%
    06:00 -3°C° 0,1 mm 2 m/S 568 mmHg 90%
    07:00 -2°C° 0,1 mm 2 m/S 569 mmHg 89%
    08:00 -1°C° 0,1 mm 2 m/S 569 mmHg 85%
    09:00 +1°C° 0,1 mm 2 m/S 570 mmHg 81%
    10:00 +3°C° 0,1 mm 2 m/S 570 mmHg 77%
    11:00 +3°C° 0,3 mm 2 m/S 570 mmHg 77%
    12:00 +2°C° 0,3 mm 3 m/S 570 mmHg 77%
    13:00 +3°C° 0,3 mm 3 m/S 570 mmHg 76%
    14:00 +2°C° 0,7 mm 3 m/S 569 mmHg 79%
    15:00 +2°C° 0,7 mm 3 m/S 569 mmHg 83%
    16:00 +2°C° 0,7 mm 2 m/S 568 mmHg 86%
    17:00 +1°C° 1,5 mm 2 m/S 568 mmHg 90%
    18:00 -1°C° 1,5 mm 2 m/S 567 mmHg 93%
    19:00 0°C° 1,5 mm 1 m/S 567 mmHg 97%
    20:00 -1°C° 1,9 mm 1 m/S 567 mmHg 97%
    21:00 -1°C° 1,9 mm 1 m/S 567 mmHg 97%
    22:00 -3°C° 1,9 mm 2 m/S 567 mmHg 98%
    23:00 -4°C° 1,8 mm 2 m/S 566 mmHg 98%

    26 April, Mittwoch

    Zeit Temperatur Niederschläge Wind Luftdruck Luftfeuchtigkeit
    00:00 -4°C° 1,8 mm 2 m/S 566 mmHg 98%
    01:00 -5°C° 1,8 mm 2 m/S 566 mmHg 98%
    02:00 -3°C° 2 mm 1 m/S 566 mmHg 98%
    03:00 -4°C° 2 mm 1 m/S 565 mmHg 98%
    04:00 -4°C° 2 mm 1 m/S 565 mmHg 98%
    05:00 -4°C° 1,6 mm 1 m/S 565 mmHg 98%
    06:00 -6°C° 1,6 mm 1 m/S 565 mmHg 98%
    07:00 -6°C° 1,6 mm 1 m/S 565 mmHg 98%
    08:00 -6°C° 1,5 mm 1 m/S 565 mmHg 98%
    09:00 -4°C° 1,5 mm 1 m/S 565 mmHg 98%
    10:00 -6°C° 1,5 mm 2 m/S 565 mmHg 98%
    11:00 -6°C° 1,4 mm 2 m/S 565 mmHg 98%
    12:00 -6°C° 1,4 mm 2 m/S 565 mmHg 98%
    13:00 -6°C° 1,4 mm 2 m/S 565 mmHg 98%
    14:00 -6°C° 0,9 mm 2 m/S 565 mmHg 98%
    15:00 -6°C° 0,9 mm 2 m/S 565 mmHg 98%
    16:00 -6°C° 0,9 mm 2 m/S 565 mmHg 98%
    17:00 -6°C° 0,6 mm 2 m/S 565 mmHg 98%
    18:00 -7°C° 0,6 mm 2 m/S 564 mmHg 98%
    19:00 -8°C° 0,6 mm 2 m/S 564 mmHg 98%
    20:00 -7°C° 0,7 mm 1 m/S 564 mmHg 98%
    21:00 -8°C° 0,7 mm 1 m/S 564 mmHg 98%
    22:00 -8°C° 0,7 mm 1 m/S 564 mmHg 98%
    23:00 -8°C° 0,6 mm 1 m/S 563 mmHg 98%

    27 April, Donnerstag

    Zeit Temperatur Niederschläge Wind Luftdruck Luftfeuchtigkeit
    00:00 -9°C° 0,6 mm 1 m/S 563 mmHg 98%
    01:00 -9°C° 0,6 mm 1 m/S 563 mmHg 98%
    02:00 -10°C° 0,5 mm 1 m/S 563 mmHg 98%
    03:00 -10°C° 0,5 mm 1 m/S 562 mmHg 98%
    04:00 -11°C° 0,5 mm 1 m/S 562 mmHg 98%
    05:00 -10°C° 0,5 mm 1 m/S 562 mmHg 98%
    06:00 -9°C° 0,5 mm 1 m/S 563 mmHg 97%
    07:00 -9°C° 0,5 mm 1 m/S 564 mmHg 97%
    08:00 -9°C° 0,9 mm 2 m/S 564 mmHg 97%
    09:00 -9°C° 0,9 mm 2 m/S 564 mmHg 97%
    10:00 -8°C° 0,9 mm 2 m/S 564 mmHg 97%
    11:00 -8°C° 1 mm 2 m/S 565 mmHg 97%
    12:00 -8°C° 1 mm 2 m/S 565 mmHg 97%
    13:00 -8°C° 1 mm 2 m/S 565 mmHg 97%
    14:00 -8°C° 1 mm 2 m/S 565 mmHg 97%
    15:00 -8°C° 1 mm 2 m/S 565 mmHg 97%
    16:00 -8°C° 1 mm 2 m/S 565 mmHg 97%
    17:00 -9°C° 0,7 mm 2 m/S 565 mmHg 97%
    18:00 -9°C° 0,7 mm 2 m/S 565 mmHg 98%
    19:00 -9°C° 0,7 mm 2 m/S 565 mmHg 98%
    20:00 -10°C° 0,5 mm 2 m/S 565 mmHg 98%
    21:00 -9°C° 0,5 mm 1 m/S 565 mmHg 98%
    22:00 -10°C° 0,5 mm 1 m/S 565 mmHg 98%
    23:00 -10°C° 0,5 mm 1 m/S 565 mmHg 98%

    28 April, Freitag

    Zeit Temperatur Niederschläge Wind Luftdruck Luftfeuchtigkeit
    00:00 -10°C° 0,5 mm 1 m/S 565 mmHg 98%
    01:00 -10°C° 0,5 mm 1 m/S 565 mmHg 98%
    02:00 -10°C° 0,7 mm 1 m/S 565 mmHg 98%
    03:00 -12°C° 0,7 mm 2 m/S 565 mmHg 98%
    04:00 -12°C° 0,7 mm 2 m/S 565 mmHg 98%
    05:00 -10°C° 0,9 mm 2 m/S 566 mmHg 98%
    06:00 -10°C° 0,9 mm 2 m/S 566 mmHg 98%
    07:00 -10°C° 0,9 mm 2 m/S 566 mmHg 98%
    08:00 -10°C° 0,6 mm 3 m/S 567 mmHg 97%
    09:00 -10°C° 0,6 mm 3 m/S 567 mmHg 97%
    10:00 -9°C° 0,6 mm 3 m/S 568 mmHg 97%
    11:00 -9°C° 0,3 mm 3 m/S 568 mmHg 97%
    12:00 -9°C° 0,3 mm 3 m/S 568 mmHg 97%
    13:00 -8°C° 0,3 mm 3 m/S 569 mmHg 96%
    14:00 -8°C° 0,2 mm 3 m/S 569 mmHg 96%
    15:00 -9°C° 0,2 mm 3 m/S 569 mmHg 96%
    16:00 -9°C° 0,2 mm 3 m/S 569 mmHg 96%
    17:00 -9°C° 0,1 mm 2 m/S 569 mmHg 96%
    18:00 -9°C° 0,1 mm 2 m/S 569 mmHg 96%
    19:00 -10°C° 0,1 mm 2 m/S 568 mmHg 97%
    20:00 -12°C° 0,1 mm 2 m/S 568 mmHg 97%
    21:00 -14°C° 0,1 mm 2 m/S 568 mmHg 97%
    22:00 -13°C° 0,1 mm 1 m/S 568 mmHg 98%
    23:00 -12°C° 0,2 mm 1 m/S 568 mmHg 98%
    Mehr zeigen